TimeEST,TemperatureF,Dew PointF,Humidity,Sea Level PressureIn,VisibilityMPH,Wind Direction,Wind SpeedMPH,Gust SpeedMPH,PrecipitationIn,Events,Conditions,WindDirDegrees,DateUTC
12:53 AM,34.0,17.1,50,30.19,10.0,North,8.1,-,N/A,,Clear,10,2013-02-21 05:53:00
1:53 AM,33.1,17.1,52,30.21,10.0,North,8.1,-,N/A,,Clear,10,2013-02-21 06:53:00
2:53 AM,33.1,17.1,52,30.20,10.0,North,8.1,-,N/A,,Clear,10,2013-02-21 07:53:00
3:53 AM,32.0,18.0,56,30.19,10.0,North,8.1,-,N/A,,Clear,10,2013-02-21 08:53:00
4:53 AM,32.0,17.1,54,30.20,10.0,North,6.9,-,N/A,,Clear,10,2013-02-21 09:53:00
5:53 AM,32.0,18.0,56,30.20,10.0,North,5.8,-,N/A,,Scattered Clouds,360,2013-02-21 10:53:00
6:53 AM,32.0,18.0,56,30.22,10.0,North,9.2,-,N/A,,Scattered Clouds,10,2013-02-21 11:53:00
7:53 AM,33.1,18.0,54,30.23,10.0,North,10.4,-,N/A,,Scattered Clouds,10,2013-02-21 12:53:00
8:53 AM,35.1,18.0,50,30.25,10.0,NNE,9.2,-,N/A,,Scattered Clouds,20,2013-02-21 13:53:00
9:53 AM,39.0,18.0,43,30.23,10.0,NE,9.2,-,N/A,,Scattered Clouds,40,2013-02-21 14:53:00
10:53 AM,42.1,18.0,38,30.20,10.0,NNE,9.2,-,N/A,,Mostly Cloudy,20,2013-02-21 15:53:00
11:53 AM,44.1,18.0,35,30.17,10.0,Calm,Calm,-,N/A,,Scattered Clouds,0,2013-02-21 16:53:00
12:53 PM,50.0,19.0,29,30.12,10.0,North,5.8,-,N/A,,Mostly Cloudy,360,2013-02-21 17:53:00
1:53 PM,52.0,21.0,30,30.10,10.0,Calm,Calm,-,N/A,,Mostly Cloudy,0,2013-02-21 18:53:00
2:53 PM,53.1,21.9,30,30.06,10.0,North,5.8,-,N/A,,Overcast,350,2013-02-21 19:53:00
3:53 PM,53.1,23.0,31,30.01,10.0,NNE,10.4,-,N/A,,Overcast,30,2013-02-21 20:53:00
4:53 PM,53.1,24.1,32,29.98,10.0,NNE,6.9,-,N/A,,Overcast,30,2013-02-21 21:53:00
5:53 PM,48.9,35.1,59,29.99,10.0,NNW,5.8,-,0.00,Rain,Light Rain,340,2013-02-21 22:53:00
6:53 PM,46.0,37.9,73,30.04,8.0,ENE,4.6,-,0.06,Rain,Light Rain,60,2013-02-21 23:53:00
7:53 PM,44.1,39.0,82,30.06,6.0,Calm,Calm,-,0.08,Rain,Light Rain,0,2013-02-22 00:53:00
8:53 PM,42.1,39.9,92,30.10,3.0,NNW,8.1,-,0.13,Rain,Heavy Rain,340,2013-02-22 01:53:00
9:01 PM,41.0,39.2,93,30.08,2.5,NE,5.8,-,0.05,Rain,Heavy Rain,50,2013-02-22 02:01:00
9:22 PM,41.0,39.2,93,30.09,4.0,NNE,3.5,-,0.16,Rain,Rain,20,2013-02-22 02:22:00
9:40 PM,41.0,39.2,93,30.09,1.8,NNE,4.6,-,0.22,Rain,Heavy Rain,20,2013-02-22 02:40:00
9:53 PM,41.0,41.0,100,30.09,3.0,North,8.1,-,0.26,Rain,Light Rain,350,2013-02-22 02:53:00
10:34 PM,41.0,41.0,100,30.11,2.5,North,3.5,-,0.05,Rain,Rain,350,2013-02-22 03:34:00
10:53 PM,41.0,41.0,100,30.11,2.5,Calm,Calm,-,0.09,Rain,Rain,0,2013-02-22 03:53:00
11:17 PM,41.0,41.0,100,30.08,2.0,Calm,Calm,-,0.07,Rain,Rain,0,2013-02-22 04:17:00
11:39 PM,42.8,41.0,93,30.07,2.0,Calm,Calm,-,0.09,Rain,Light Rain,0,2013-02-22 04:39:00
11:53 PM,42.1,41.0,96,30.04,2.0,Calm,Calm,-,0.09,,Overcast,0,2013-02-22 04:53:00